Weather History for GMMX - December, 2012

Change the Weather History Date:

Friday, December 28, 2012

  Actual Average Record
Temperature  
Mean Temperature 54 °F -  
Max Temperature 71 °F 63 °F 71 °F (2001)
Min Temperature 37 °F 42 °F 33 °F (2000)
Degree Days  
Heating Degree Days 11    
Growing Degree Days 4 (Base 50)    
Moisture  
Dew Point 35 °F    
Average Humidity 52    
Maximum Humidity 93    
Minimum Humidity 14    
Precipitation  
Precipitation 0.00 in 0.04 in - ()
Sea Level Pressure  
Sea Level Pressure 30.39 in    
Wind  
Wind Speed 3 mph ()    
Max Wind Speed 10 mph    
Max Gust Speed -    
Visibility 5.2 miles    
Events      
Averages and records for this station are not official NWS values.
T = Trace of Precipitation, MM = Missing Value Source: Averaged Metar Reports

Daily Weather History Graph

Daily Weather History Graph

Search for Another Location

Airport or City:

Trip Planner

Search our weather history database for the weather conditions in past years. The results will help you decide how hot, cold, wet, or windy it might be!

Date:

Astronomy

Dec. 28, 2012 Rise Set
Actual Time 7:30 AM WET 5:37 PM WET
Civil Twilight 7:03 AM WET 6:04 PM WET
Nautical Twilight 6:33 AM WET 6:34 PM WET
Astronomical Twilight 6:03 AM WET 7:04 PM WET
Moon 5:58 PM WET (12/28) 7:18 AM WET (12/28)
Length of Visible Light 11h 00m
Length of Day
10h 06m
Full, 100% of the Moon is Illuminated
Dec 28
Full
Jan 5
Last Quarter
Jan 11
New
Jan 18
First Quarter
Jan 27
Full

Hourly Weather History & Observations

Time (WET) Temp. Windchill Dew Point Humidity Pressure Visibility Wind Dir Wind Speed Gust Speed Precip Events Conditions
12:00 AM 46.4 °F - 41.0 °F 81% 30.39 in - Calm Calm - N/A   Clear
12:30 AM 46.4 °F - 41.0 °F 81% 30.39 in - Calm Calm - N/A   Clear
1:00 AM 46.4 °F - 41.0 °F 81% 30.39 in - Calm Calm - N/A   Clear
1:30 AM 44.6 °F - 39.2 °F 81% 30.39 in - Calm Calm - N/A   Clear
2:00 AM 46.4 °F - 39.2 °F 76% 30.39 in - Calm Calm - N/A   Clear
2:30 AM 44.6 °F - 39.2 °F 81% 30.39 in - North 1.2 mph - N/A   Clear
3:00 AM 44.6 °F - 37.4 °F 76% 30.39 in 6.2 mi Calm Calm - N/A   Unknown
3:30 AM 46.4 °F - 37.4 °F 71% 30.36 in - Calm Calm - N/A   Clear
4:00 AM 42.8 °F 40.1 °F 37.4 °F 81% 30.36 in - ENE 4.6 mph - N/A   Clear
4:30 AM 42.8 °F 40.1 °F 37.4 °F 81% 30.36 in - East 4.6 mph - N/A   Clear
5:00 AM 42.8 °F 41.1 °F 37.4 °F 81% 30.36 in - ENE 3.5 mph - N/A   Clear
5:30 AM 41.0 °F 38.0 °F 35.6 °F 81% 30.36 in - East 4.6 mph - N/A   Clear
5:49 AM 39 °F - 36 °F 84% 30.43 in 6 mi East 5.8 mph - -  
6:00 AM 39.2 °F 35.0 °F 35.6 °F 87% 30.36 in - East 5.8 mph - N/A   Clear
6:30 AM 39.2 °F 35.0 °F 37.4 °F 93% 30.36 in - ENE 5.8 mph - N/A   Clear
7:00 AM 39.2 °F 34.2 °F 35.6 °F 87% 30.39 in - East 6.9 mph - N/A   Clear
7:30 AM 39.2 °F 33.6 °F 35.6 °F 87% 30.39 in - East 8.1 mph - N/A   Clear
8:00 AM 37.4 °F 32.8 °F 35.6 °F 93% 30.39 in - East 5.8 mph - N/A   Clear
8:30 AM 41.0 °F 37.1 °F 37.4 °F 87% 30.39 in - East 5.8 mph - N/A   Clear
9:00 AM 46 °F - 39 °F 67% 30.44 in 5 mi East 4.6 mph - -  
9:00 AM 46.4 °F 44.3 °F 39.2 °F 76% 30.39 in 5.0 mi East 4.6 mph - N/A   Unknown
9:30 AM 50.0 °F - 39.2 °F 66% 30.42 in 5.0 mi East 4.6 mph - N/A   Unknown
10:00 AM 55.4 °F - 41.0 °F 58% 30.42 in - East 3.5 mph - N/A   Clear
10:30 AM 59.0 °F - 39.2 °F 48% 30.42 in 5.0 mi Variable 2.3 mph - N/A   Unknown
11:00 AM 62.6 °F - 39.2 °F 42% 30.42 in 5.0 mi Variable 2.3 mph - N/A   Unknown
11:30 AM 66.2 °F - 39.2 °F 37% 30.42 in - Calm Calm - N/A   Clear
12:00 PM 68 °F - 35 °F 19% 30.36 in 6 mi South 2.3 mph - -  
12:00 PM 68.0 °F - 35.6 °F 30% 30.39 in - Variable 2.3 mph - N/A   Clear
12:30 PM 69.8 °F - 37.4 °F 31% 30.39 in - Variable 2.3 mph - N/A   Clear
1:00 PM 69.8 °F - 37.4 °F 31% 30.39 in - NNW 4.6 mph - N/A   Clear
1:30 PM 71.6 °F - 30.2 °F 22% 30.36 in - NW 8.1 mph - N/A   Clear
2:00 PM 71.6 °F - 32.0 °F 23% 30.36 in - WNW 6.9 mph - N/A   Clear
2:30 PM 71.6 °F - 32.0 °F 23% 30.36 in - NW 5.8 mph - N/A   Clear
3:00 PM 71 °F - 32 °F 14% 30.32 in 6 mi WNW 10.4 mph - -  
3:00 PM 71.6 °F - 32.0 °F 23% 30.36 in - WNW 10.4 mph - N/A   Clear
3:30 PM 71.6 °F - 30.2 °F 22% 30.36 in - WNW 8.1 mph - N/A   Clear
4:00 PM 71.6 °F - 30.2 °F 22% 30.36 in - WNW 6.9 mph - N/A   Clear
4:30 PM 69.8 °F - 30.2 °F 23% 30.39 in - NW 8.1 mph - N/A   Clear
5:00 PM 69.8 °F - 32.0 °F 25% 30.39 in - NW 6.9 mph - N/A   Clear
5:30 PM 68.0 °F - 32.0 °F 26% 30.39 in - NNW 3.5 mph - N/A   Clear
6:00 PM 65 °F - 31 °F 17% 30.37 in 6 mi NW 2.3 mph - -  
6:00 PM 64.4 °F - 30.2 °F 28% 30.39 in - NW 2.3 mph - N/A   Clear
6:30 PM 64.4 °F - 32.0 °F 30% 30.39 in 5.6 mi Calm Calm - N/A   Unknown
7:00 PM 60.8 °F - 32.0 °F 34% 30.39 in 5.6 mi WSW 2.3 mph - N/A   Unknown
7:30 PM 59.0 °F - 33.8 °F 39% 30.39 in 1.9 mi SSW 3.5 mph - N/A   Unknown
8:00 PM 55.4 °F - 33.8 °F 44% 30.42 in 4.3 mi SW 6.9 mph - N/A   Unknown
8:30 PM 59.0 °F - 33.8 °F 39% 30.42 in - SW 5.8 mph - N/A   Clear
9:00 PM 56 °F - 33 °F 30% 30.43 in 5 mi South 2.3 mph - -  
9:00 PM 55.4 °F - 33.8 °F 44% 30.42 in 5.6 mi Variable 2.3 mph - N/A   Unknown
9:30 PM 53.6 °F - 33.8 °F 47% 30.42 in - Variable 2.3 mph - N/A   Clear
10:00 PM 53.6 °F - 33.8 °F 47% 30.42 in - South 3.5 mph - N/A   Clear
10:30 PM 55.4 °F - 32.0 °F 41% 30.42 in - SSW 4.6 mph - N/A   Clear
11:00 PM 55.4 °F - 33.8 °F 44% 30.42 in - SSW 5.8 mph - N/A   Clear
11:30 PM 51.8 °F - 33.8 °F 50% 30.42 in - Calm Calm - N/A   Clear